When you browse on this site, cookies collect data to enhance your experience and personalize the content and advertising you see.
Visit our Privacy Policy to learn more. By continuing to use the site, you agree to this use of cookies and data.
  • In Deutschland
  • Länderverzeichnis
  • Für 7 Tage
  • Wassertemperatur
  • Satellitenkarten
  • Wetterkarte
  • Widgets
  • user-avatar
    Anmelden

    Stündliche Wetter Townsville

    Heute, 25 April, Donnerstag

    Zeit Temperatur Niederschläge Wind Luftdruck Luftfeuchtigkeit
    00:00 +25°C° 0.4 mm 3 m/S 753 mmHg 93%
    01:00 +25°C° 0.4 mm 3 m/S 752 mmHg 94%
    02:00 +25°C° 0.4 mm 3 m/S 752 mmHg 94%
    03:00 +25°C° 0.4 mm 4 m/S 752 mmHg 94%
    04:00 +25°C° 0.4 mm 4 m/S 752 mmHg 94%
    05:00 +25°C° 0.3 mm 4 m/S 752 mmHg 93%
    06:00 +25°C° 0.3 mm 4 m/S 752 mmHg 93%
    07:00 +25°C° 0.3 mm 4 m/S 753 mmHg 92%
    08:00 +26°C° 0.8 mm 3 m/S 753 mmHg 87%
    09:00 +27°C° 0.8 mm 3 m/S 753 mmHg 82%
    10:00 +29°C° 0.8 mm 3 m/S 753 mmHg 77%
    11:00 +29°C° 0.8 mm 3 m/S 753 mmHg 75%
    12:00 +29°C° 0.8 mm 3 m/S 752 mmHg 73%
    13:00 +29°C° 0.8 mm 3 m/S 752 mmHg 71%
    14:00 +29°C° 0.3 mm 3 m/S 752 mmHg 71%
    15:00 +29°C° 0.3 mm 2 m/S 751 mmHg 71%
    16:00 +29°C° 0.3 mm 2 m/S 751 mmHg 71%
    17:00 +28°C° 0.1 mm 2 m/S 751 mmHg 76%
    18:00 +27°C° 0.1 mm 2 m/S 752 mmHg 81%
    19:00 +26°C° 0.1 mm 2 m/S 752 mmHg 86%
    20:00 +26°C° 0.1 mm 2 m/S 752 mmHg 87%
    21:00 +26°C° 0.1 mm 2 m/S 753 mmHg 89%
    22:00 +26°C° 0.1 mm 3 m/S 753 mmHg 90%
    23:00 +26°C° 0.1 mm 3 m/S 753 mmHg 91%

    Morgen, 26 April, Freitag

    Zeit Temperatur Niederschläge Wind Luftdruck Luftfeuchtigkeit
    00:00 +26°C° 0.1 mm 3 m/S 753 mmHg 91%
    01:00 +25°C° 0.1 mm 3 m/S 753 mmHg 92%
    02:00 +25°C° 0.1 mm 3 m/S 753 mmHg 93%
    03:00 +25°C° 0.1 mm 3 m/S 753 mmHg 93%
    04:00 +25°C° 0.1 mm 3 m/S 752 mmHg 94%
    05:00 +25°C° 0.1 mm 3 m/S 752 mmHg 94%
    06:00 +25°C° 0.1 mm 3 m/S 753 mmHg 93%
    07:00 +25°C° 0.1 mm 3 m/S 753 mmHg 92%
    08:00 +26°C° 0 mm 3 m/S 753 mmHg 87%
    09:00 +27°C° 0 mm 3 m/S 754 mmHg 81%
    10:00 +29°C° 0 mm 3 m/S 754 mmHg 76%
    11:00 +29°C° 0.1 mm 3 m/S 753 mmHg 72%
    12:00 +30°C° 0.1 mm 3 m/S 753 mmHg 68%
    13:00 +31°C° 0.1 mm 3 m/S 752 mmHg 64%
    14:00 +31°C° 0 mm 3 m/S 752 mmHg 66%
    15:00 +30°C° 0 mm 4 m/S 751 mmHg 67%
    16:00 +30°C° 0 mm 4 m/S 751 mmHg 69%
    17:00 +29°C° 0 mm 3 m/S 751 mmHg 75%
    18:00 +28°C° 0 mm 3 m/S 752 mmHg 80%
    19:00 +26°C° 0 mm 2 m/S 752 mmHg 86%
    20:00 +26°C° 0 mm 2 m/S 753 mmHg 88%
    21:00 +26°C° 0 mm 2 m/S 753 mmHg 90%
    22:00 +25°C° 0 mm 2 m/S 754 mmHg 91%
    23:00 +25°C° 0 mm 2 m/S 754 mmHg 92%

    übermorgen, 27 April, Samstag

    Zeit Temperatur Niederschläge Wind Luftdruck Luftfeuchtigkeit
    00:00 +25°C° 0 mm 2 m/S 753 mmHg 93%
    01:00 +25°C° 0 mm 2 m/S 753 mmHg 93%
    02:00 +25°C° 0 mm 3 m/S 753 mmHg 93%
    03:00 +25°C° 0 mm 3 m/S 753 mmHg 94%
    04:00 +25°C° 0 mm 3 m/S 753 mmHg 94%
    05:00 +25°C° 0 mm 3 m/S 753 mmHg 93%
    06:00 +25°C° 0 mm 3 m/S 753 mmHg 92%
    07:00 +25°C° 0 mm 3 m/S 754 mmHg 91%
    08:00 +26°C° 0 mm 3 m/S 754 mmHg 82%
    09:00 +28°C° 0 mm 4 m/S 754 mmHg 74%
    10:00 +29°C° 0 mm 4 m/S 755 mmHg 65%
    11:00 +30°C° 0 mm 4 m/S 754 mmHg 63%
    12:00 +32°C° 0 mm 4 m/S 754 mmHg 61%
    13:00 +32°C° 0 mm 4 m/S 753 mmHg 58%
    14:00 +32°C° 0.1 mm 4 m/S 753 mmHg 61%
    15:00 +32°C° 0.1 mm 4 m/S 753 mmHg 64%
    16:00 +30°C° 0.1 mm 4 m/S 752 mmHg 66%
    17:00 +29°C° 0.4 mm 5 m/S 753 mmHg 73%
    18:00 +28°C° 0.4 mm 5 m/S 753 mmHg 80%
    19:00 +26°C° 0.4 mm 5 m/S 754 mmHg 86%
    20:00 +26°C° 0.3 mm 5 m/S 754 mmHg 87%
    21:00 +26°C° 0.3 mm 5 m/S 755 mmHg 87%
    22:00 +26°C° 0.3 mm 5 m/S 755 mmHg 88%
    23:00 +25°C° 0.2 mm 5 m/S 755 mmHg 89%

    28 April, Sonntag

    Zeit Temperatur Niederschläge Wind Luftdruck Luftfeuchtigkeit
    00:00 +25°C° 0.2 mm 5 m/S 755 mmHg 89%
    01:00 +25°C° 0.2 mm 5 m/S 754 mmHg 90%
    02:00 +25°C° 0.2 mm 5 m/S 754 mmHg 91%
    03:00 +23°C° 0.2 mm 5 m/S 754 mmHg 91%
    04:00 +23°C° 0.2 mm 5 m/S 754 mmHg 91%
    05:00 +23°C° 0.1 mm 5 m/S 754 mmHg 90%
    06:00 +23°C° 0.1 mm 5 m/S 755 mmHg 90%
    07:00 +23°C° 0.1 mm 5 m/S 755 mmHg 89%
    08:00 +24°C° 0 mm 6 m/S 756 mmHg 84%
    09:00 +26°C° 0 mm 6 m/S 756 mmHg 78%
    10:00 +27°C° 0 mm 6 m/S 756 mmHg 73%
    11:00 +28°C° 0.2 mm 6 m/S 756 mmHg 70%
    12:00 +29°C° 0.2 mm 6 m/S 755 mmHg 67%
    13:00 +30°C° 0.2 mm 6 m/S 755 mmHg 63%
    14:00 +29°C° 0.1 mm 6 m/S 754 mmHg 64%
    15:00 +29°C° 0.1 mm 6 m/S 754 mmHg 65%
    16:00 +29°C° 0.1 mm 6 m/S 754 mmHg 65%
    17:00 +28°C° 0 mm 6 m/S 754 mmHg 69%
    18:00 +27°C° 0 mm 6 m/S 755 mmHg 73%
    19:00 +26°C° 0 mm 6 m/S 755 mmHg 78%
    20:00 +26°C° 0 mm 6 m/S 756 mmHg 79%
    21:00 +24°C° 0 mm 6 m/S 756 mmHg 79%
    22:00 +24°C° 0 mm 6 m/S 756 mmHg 80%
    23:00 +24°C° 0 mm 6 m/S 756 mmHg 82%

    29 April, Montag

    Zeit Temperatur Niederschläge Wind Luftdruck Luftfeuchtigkeit
    00:00 +23°C° 0 mm 6 m/S 755 mmHg 83%
    01:00 +23°C° 0 mm 5 m/S 755 mmHg 84%
    02:00 +23°C° 0 mm 6 m/S 755 mmHg 85%
    03:00 +22°C° 0 mm 6 m/S 755 mmHg 85%
    04:00 +22°C° 0 mm 6 m/S 754 mmHg 86%
    05:00 +22°C° 0 mm 6 m/S 755 mmHg 87%
    06:00 +22°C° 0 mm 6 m/S 755 mmHg 87%
    07:00 +22°C° 0 mm 6 m/S 756 mmHg 87%
    08:00 +24°C° 0 mm 6 m/S 756 mmHg 81%
    09:00 +26°C° 0 mm 7 m/S 756 mmHg 75%
    10:00 +27°C° 0 mm 7 m/S 756 mmHg 69%
    11:00 +28°C° 0.1 mm 7 m/S 756 mmHg 66%
    12:00 +29°C° 0.1 mm 7 m/S 755 mmHg 63%
    13:00 +30°C° 0.1 mm 7 m/S 754 mmHg 60%
    14:00 +29°C° 0.1 mm 7 m/S 754 mmHg 62%
    15:00 +29°C° 0.1 mm 7 m/S 754 mmHg 64%
    16:00 +28°C° 0.1 mm 8 m/S 754 mmHg 66%
    17:00 +28°C° 0 mm 7 m/S 754 mmHg 68%
    18:00 +27°C° 0 mm 7 m/S 755 mmHg 71%
    19:00 +26°C° 0 mm 7 m/S 755 mmHg 73%
    20:00 +26°C° 0 mm 7 m/S 755 mmHg 74%
    21:00 +24°C° 0 mm 6 m/S 756 mmHg 74%
    22:00 +24°C° 0 mm 6 m/S 756 mmHg 75%
    23:00 +23°C° 0 mm 6 m/S 756 mmHg 76%

    30 April, Dienstag

    Zeit Temperatur Niederschläge Wind Luftdruck Luftfeuchtigkeit
    00:00 +23°C° 0 mm 6 m/S 755 mmHg 78%
    01:00 +23°C° 0 mm 6 m/S 755 mmHg 79%
    02:00 +23°C° 0 mm 6 m/S 755 mmHg 81%
    03:00 +23°C° 0 mm 6 m/S 754 mmHg 82%
    04:00 +23°C° 0 mm 6 m/S 754 mmHg 83%
    05:00 +23°C° 0.1 mm 6 m/S 754 mmHg 83%
    06:00 +23°C° 0.1 mm 6 m/S 755 mmHg 82%
    07:00 +23°C° 0.1 mm 6 m/S 755 mmHg 82%
    08:00 +24°C° 0.2 mm 6 m/S 755 mmHg 80%
    09:00 +26°C° 0.2 mm 6 m/S 755 mmHg 79%
    10:00 +26°C° 0.2 mm 6 m/S 755 mmHg 77%
    11:00 +27°C° 0.4 mm 7 m/S 755 mmHg 75%
    12:00 +28°C° 0.4 mm 7 m/S 754 mmHg 72%
    13:00 +28°C° 0.4 mm 7 m/S 754 mmHg 70%
    14:00 +28°C° 0.2 mm 7 m/S 754 mmHg 71%
    15:00 +28°C° 0.2 mm 7 m/S 754 mmHg 72%
    16:00 +28°C° 0.2 mm 7 m/S 753 mmHg 72%
    17:00 +27°C° 0.1 mm 7 m/S 754 mmHg 76%
    18:00 +26°C° 0.1 mm 7 m/S 754 mmHg 79%
    19:00 +26°C° 0.1 mm 7 m/S 755 mmHg 82%
    20:00 +24°C° 0.1 mm 7 m/S 755 mmHg 82%
    21:00 +24°C° 0.1 mm 6 m/S 755 mmHg 82%
    22:00 +24°C° 0.1 mm 6 m/S 755 mmHg 82%
    23:00 +24°C° 0.1 mm 6 m/S 755 mmHg 83%
    Mehr zeigen